Wind_Speed
16 17 19 21 22 23 23 24 25 27 30 33 35 35 34 33 32 30 28 25 23 20 18 18 18 17 17 16 16 16 16 16 16 17 17 18 18 18 18 18 18 17 17 17 16 16 15 15 15 15 16 17 18 19 20 21 22 23 23 23 24 26 28 29 30 30 30 31 32 32 31 30 29 28 26 24 24 22 20 21 20 20 20 21 24 27
15 16 18 19 21 22 22 23 24 26 28 30 33 35 34 33 32 31 29 27 25 22 20 19 18 18 17 17 17 17 17 17 18 18 19 19 20 21 20 20 19 19 19 18 18 17 17 16 16 17 18 19 19 20 20 21 21 22 24 24 25 26 27 29 30 30 32 33 34 34 33 31 29 28 27 24 24 24 24 26 27 26 23 23 26 27
15 16 17 18 20 21 22 22 23 25 26 29 31 33 34 33 32 31 29 27 26 24 22 20 19 19 18 17 17 18 18 18 18 19 20 20 21 22 22 22 21 21 20 20 20 19 19 18 18 19 20 20 21 21 22 22 23 24 25 26 26 28 29 30 32 32 33 34 35 35 35 34 32 30 29 26 24 24 25 28 30 31 30 29 30 31
16 16 17 18 19 21 22 22 23 24 25 27 29 31 32 32 31 30 29 28 26 25 23 21 21 20 19 18 18 18 18 18 18 18 19 20 21 23 24 24 23 23 22 21 21 21 21 20 20 20 21 22 23 24 24 25 26 27 27 28 28 29 31 33 34 36 37 38 38 38 38 37 36 34 31 30 27 24 25 26 29 32 35 36 36 36
17 16 16 17 19 20 21 22 23 24 25 26 28 29 31 32 31 30 29 28 27 26 24 23 22 21 20 19 19 18 19 19 18 18 18 19 20 22 24 24 24 24 23 22 22 22 22 22 22 22 23 24 25 27 27 28 29 30 30 31 31 32 33 34 35 37 38 39 39 39 39 39 39 38 36 34 32 29 27 26 27 29 33 37 39 41
18 17 17 17 18 20 21 22 23 24 24 25 27 28 30 31 31 30 28 28 27 26 26 24 23 22 21 20 20 19 19 19 19 18 18 18 19 21 23 24 25 24 24 24 24 24 24 24 24 24 25 27 28 29 30 31 32 32 33 33 34 34 34 35 36 37 37 38 38 38 39 39 40 40 40 39 39 37 35 32 30 29 30 33 37 41
19 19 18 17 18 19 21 21 22 23 24 25 27 28 28 29 31 30 29 28 27 26 26 25 24 22 21 21 21 20 19 20 20 20 19 19 19 20 22 24 25 25 25 25 25 26 26 26 26 26 27 28 30 31 32 33 34 34 35 36 36 36 36 36 37 38 38 38 39 39 39 40 40 42 42 42 42 43 43 41 39 37 35 34 35 37
20 20 19 18 18 18 20 21 21 22 23 25 26 27 28 29 30 30 30 28 27 26 25 25 24 23 22 21 21 21 20 20 22 22 22 21 19 19 21 23 25 26 26 26 26 27 28 28 28 28 28 30 31 32 33 34 35 36 37 37 37 37 37 37 38 39 40 40 39 40 40 40 40 41 42 43 43 43 44 45 44 43 42 41 41 41
22 22 21 20 19 19 20 21 22 22 23 24 25 27 28 28 29 30 30 29 28 26 25 25 24 24 23 22 22 21 20 21 23 24 24 24 23 21 21 22 25 27 28 28 27 28 29 30 30 30 30 31 32 33 34 35 36 36 37 37 37 37 37 38 39 39 40 40 40 40 40 40 40 40 41 42 43 43 44 45 46 46 46 45 45 46
23 23 22 22 21 20 20 21 22 22 23 24 25 26 27 29 29 30 30 30 30 28 26 25 24 23 22 21 22 22 21 21 23 25 26 26 26 25 23 23 25 27 28 29 29 29 29 31 31 31 31 31 32 34 35 36 36 36 37 37 37 37 38 38 39 40 40 40 40 40 40 40 40 40 41 41 42 43 44 45 47 48 48 48 47 47
24 24 23 23 23 22 21 21 22 23 23 24 25 26 26 28 29 30 31 31 31 30 28 26 25 24 22 21 22 22 21 21 23 25 26 26 27 27 27 25 26 27 29 30 30 30 30 31 33 33 33 33 33 35 36 37 38 38 37 37 38 38 39 39 40 41 42 42 42 42 42 42 42 42 43 44 44 45 45 46 46 47 48 49 50 50
26 25 25 24 24 24 23 23 24 24 24 24 25 26 26 28 29 30 31 32 33 32 31 29 28 26 24 22 22 23 22 22 23 24 26 26 27 28 28 28 28 29 30 32 33 32 32 32 33 35 35 35 35 37 38 39 40 40 39 39 39 40 41 41 42 43 44 44 44 44 44 44 44 45 46 46 47 47 48 48 48 48 49 49 50 50
27 26 26 25 26 26 26 26 26 26 25 25 26 26 27 28 30 30 31 32 34 34 34 32 31 30 28 25 25 25 24 23 23 24 26 27 27 28 28 29 29 31 32 33 34 35 34 34 35 36 37 37 37 38 40 42 42 42 42 41 41 42 43 43 44 45 45 45 45 45 45 45 46 46 47 48 48 49 50 50 51 51 51 51 51 51
29 28 27 27 27 28 28 28 28 28 27 27 27 27 28 29 30 31 32 33 34 35 36 35 34 33 32 30 29 28 27 26 25 26 27 28 28 29 29 29 30 31 33 34 36 37 37 37 37 38 38 38 38 39 41 43 43 43 43 43 43 43 44 45 46 46 47 47 47 47 47 48 48 48 49 49 50 51 52 52 53 54 54 54 53 52
31 30 29 29 29 30 30 30 31 30 29 29 29 29 29 30 31 32 33 34 34 35 36 37 37 37 36 34 33 31 30 30 29 28 29 30 30 31 32 32 32 32 33 35 37 38 39 40 40 41 41 41 40 40 42 43 44 44 44 44 44 45 46 46 47 47 48 48 49 49 49 50 50 51 51 52 52 53 54 55 56 56 56 56 55 54
33 32 31 31 31 32 32 32 33 32 31 31 31 31 31 31 32 33 33 34 35 36 36 37 38 39 39 38 37 35 34 33 32 32 32 32 33 34 34 35 35 34 34 35 37 39 40 41 42 43 44 44 43 43 43 45 45 45 45 45 46 46 47 47 47 48 48 49 49 49 50 51 52 52 53 54 55 56 57 58 58 59 59 58 57 57
35 34 33 33 33 33 34 35 35 34 33 34 33 33 33 32 33 33 34 35 36 36 37 37 37 39 40 41 40 38 37 36 35 35 35 35 36 36 37 37 38 37 37 37 38 39 41 42 44 45 46 46 46 45 46 46 47 47 47 47 47 48 48 48 48 49 49 49 49 50 51 52 52 53 54 55 57 58 59 60 61 61 61 61 60 60
37 36 35 35 35 35 36 36 37 37 36 36 36 35 34 34 34 35 36 36 37 37 38 38 38 39 41 41 41 41 40 39 39 38 39 39 39 39 39 40 40 40 40 40 40 41 42 43 45 46 48 48 48 48 48 48 48 48 49 49 48 49 49 49 49 50 50 50 50 51 52 52 53 54 55 57 58 60 61 61 62 63 63 63 63 63
40 38 37 38 37 37 38 38 38 38 38 38 39 38 36 36 36 37 37 38 38 39 39 40 40 40 41 41 42 42 42 42 41 41 42 42 42 41 42 42 43 43 44 43 43 43 44 44 46 47 49 49 50 50 50 50 50 50 50 50 50 50 50 50 50 51 51 51 51 52 53 53 53 54 56 58 60 61 62 62 63 64 64 65 65 65
42 41 39 39 39 39 40 41 40 39 40 41 41 40 39 38 38 39 39 39 39 40 41 42 42 42 41 42 43 44 44 44 44 44 45 45 45 44 44 45 46 46 46 46 45 46 46 46 47 48 50 50 50 51 52 52 52 52 52 52 52 51 51 51 52 52 52 52 53 53 54 54 54 55 57 59 61 62 62 63 64 65 65 66 66 66
45 43 42 41 41 42 42 42 42 41 42 43 43 42 41 40 41 41 41 41 41 41 42 44 45 44 42 43 45 45 46 46 45 46 47 47 47 47 47 48 49 49 49 48 48 48 49 48 49 50 51 50 51 52 53 54 54 54 54 53 53 53 53 52 53 54 54 54 54 55 55 55 55 56 58 60 62 63 63 64 64 65 65 66 66 66
47 46 44 43 43 44 44 44 44 44 44 44 44 44 43 42 43 43 43 43 43 43 44 45 47 47 45 45 46 47 47 47 47 48 48 49 49 49 50 50 51 51 51 50 50 51 51 51 51 52 52 51 52 53 54 55 56 55 55 55 55 55 54 54 54 55 55 55 55 56 57 57 56 57 59 61 63 64 64 64 65 65 66 66 67 67
48 48 47 46 45 45 45 46 46 46 46 46 45 45 44 44 45 45 45 45 44 45 45 46 49 50 48 47 48 49 49 49 48 49 50 50 50 51 51 52 53 53 53 52 52 53 53 53 54 54 54 53 53 54 55 56 56 56 55 56 56 56 56 55 56 56 56 57 57 57 58 58 58 59 60 62 64 65 65 65 66 66 66 66 67 67
50 50 50 49 47 46 48 48 48 47 47 47 47 46 46 45 46 47 47 47 47 47 47 47 50 52 51 50 51 51 51 51 51 51 51 51 51 52 53 54 54 54 54 54 54 55 55 56 56 56 55 54 54 55 55 55 55 55 55 56 56 57 56 56 57 57 58 58 58 58 58 59 59 60 62 63 64 65 66 66 67 67 67 67 67 67
52 52 52 51 50 50 50 50 50 49 49 49 49 48 47 47 47 48 48 49 49 49 49 49 52 54 53 53 53 54 54 54 53 53 52 52 53 53 54 55 55 56 56 56 56 57 58 58 59 58 56 55 55 55 56 56 55 56 56 56 56 57 57 57 57 58 59 59 59 59 59 59 60 62 63 64 65 66 67 67 68 69 68 68 68 69
54 54 54 54 53 53 52 52 51 51 51 51 51 50 49 49 49 50 50 50 51 51 51 51 53 55 55 56 56 56 57 57 56 55 55 55 55 55 55 56 57 57 58 58 58 59 60 60 60 59 58 57 57 57 57 56 56 56 56 56 56 57 57 57 58 58 59 59 59 60 60 60 61 63 64 65 66 67 68 69 70 70 70 70 70 70
57 56 57 56 56 56 55 53 53 53 53 53 53 52 51 51 51 52 52 52 52 52 53 54 54 55 58 58 58 58 58 59 58 58 58 58 58 57 58 58 59 60 60 60 60 60 61 62 62 61 59 59 58 57 57 57 57 57 56 56 57 57 58 58 58 58 59 59 59 60 60 61 62 64 66 66 67 69 70 71 71 72 71 71 72 72
59 59 59 59 59 58 56 55 55 55 55 55 55 54 53 53 54 55 54 54 54 54 55 56 55 56 60 61 60 60 60 60 61 61 61 61 61 60 60 61 61 62 62 61 61 62 63 64 64 62 61 61 60 59 58 58 58 57 57 57 57 58 58 58 58 58 58 59 59 60 61 62 64 66 67 68 70 71 72 73 73 74 74 73 73 74
61 62 62 61 60 60 59 57 57 57 56 56 56 55 55 55 56 57 56 55 56 56 57 58 58 59 62 63 62 62 62 63 63 63 63 64 64 63 63 63 63 63 63 62 63 64 65 66 65 64 63 62 61 60 60 59 58 57 57 57 57 58 58 58 58 58 58 58 59 61 62 64 65 67 69 71 72 73 74 75 75 76 76 76 75 75
64 64 63 62 62 61 61 60 59 59 59 58 57 56 56 57 58 58 57 57 58 58 58 59 59 61 64 64 64 64 65 65 65 65 65 65 65 65 66 66 65 65 64 64 65 66 67 67 66 65 64 64 62 62 62 60 59 58 57 57 58 58 58 58 58 58 58 58 60 62 64 65 67 69 72 73 74 75 76 77 78 78 79 78 77 76
66 66 65 63 63 62 62 63 62 62 61 59 57 57 58 59 60 59 59 60 60 59 59 59 60 62 64 64 64 65 66 66 66 66 66 67 67 67 68 67 67 66 66 66 67 68 68 68 67 67 66 65 64 64 63 61 59 59 58 58 58 58 58 58 58 58 58 58 60 63 65 67 69 72 74 75 76 77 78 79 80 81 81 80 79 77
69 68 66 65 64 64 64 65 65 64 62 60 59 60 61 61 61 61 62 63 62 61 61 61 61 63 65 66 66 66 66 66 66 67 67 68 68 69 69 69 69 68 68 68 69 69 69 69 68 68 68 67 66 65 63 62 61 60 58 58 59 59 58 58 58 57 58 59 61 63 66 68 71 73 75 76 78 79 81 82 83 83 83 83 81 79
70 70 68 67 66 66 66 66 67 66 63 61 63 64 64 63 64 65 65 65 64 63 62 63 64 65 67 67 67 68 68 67 68 68 69 69 70 70 70 70 70 70 70 71 71 71 71 70 70 70 69 68 66 65 64 63 62 60 59 59 59 59 59 58 58 58 59 61 63 65 67 69 72 74 76 78 79 81 83 84 84 85 85 84 83 81
71 71 70 69 69 68 68 67 67 65 63 64 66 67 66 66 67 68 68 66 66 65 65 66 67 67 68 68 68 69 69 70 70 71 71 71 72 71 71 71 72 72 72 73 73 73 73 72 72 71 70 68 67 66 65 64 63 61 60 59 60 60 60 58 58 59 60 63 65 67 69 72 74 76 78 79 81 82 84 85 86 86 86 85 84 81
72 72 72 71 70 69 68 68 67 65 64 67 68 68 68 69 70 70 69 68 68 69 69 69 69 69 70 70 70 70 71 72 73 73 73 73 73 73 74 74 74 74 75 76 76 75 74 73 73 72 70 69 68 67 66 65 63 62 60 60 61 61 60 59 59 61 63 65 67 69 72 74 77 79 80 81 82 83 85 86 86 87 87 86 84 82
74 73 73 72 71 70 70 70 68 66 66 68 69 69 70 72 72 72 71 71 71 73 73 73 72 72 72 72 72 72 73 73 74 74 74 74 75 75 75 75 76 76 77 77 77 76 75 74 74 72 71 70 69 68 67 65 64 63 61 61 61 61 61 61 62 63 65 68 70 72 75 77 79 81 81 82 83 84 85 86 87 88 88 87 85 82
75 75 74 73 73 72 72 72 71 69 68 69 70 71 72 72 73 73 72 72 74 76 76 76 75 74 75 75 75 75 75 75 75 75 75 76 76 77 77 77 77 78 78 78 78 77 76 75 75 73 72 72 71 69 67 66 65 64 63 62 62 62 63 63 64 66 68 70 72 75 77 80 81 83 83 84 84 85 86 87 88 89 89 87 85 82
77 77 76 75 75 74 74 74 73 71 69 70 71 72 72 73 74 76 74 73 76 79 78 78 77 78 78 78 77 77 77 77 77 77 77 78 78 78 79 79 79 80 80 80 79 78 77 76 75 75 73 73 72 70 68 67 66 65 64 63 63 63 64 66 67 68 70 73 75 77 79 81 83 84 85 85 86 87 88 88 88 89 89 87 84 80
80 79 79 78 77 76 76 76 74 71 70 70 71 72 73 74 77 78 76 76 79 81 80 79 80 81 81 80 80 79 79 79 79 80 80 80 80 81 81 81 82 82 82 81 80 79 78 77 76 75 75 74 73 71 68 67 67 67 66 65 64 64 66 67 69 71 74 76 77 79 81 83 84 85 86 87 88 88 89 89 89 88 87 85 83 78
82 81 81 80 79 78 77 76 73 71 70 71 72 74 75 77 78 79 78 78 81 81 81 81 83 83 83 83 82 81 81 81 82 82 82 83 83 83 84 84 84 84 84 83 82 80 79 78 77 76 76 75 73 71 69 68 68 68 67 66 66 66 67 69 72 74 77 78 80 81 83 84 85 86 87 89 90 90 90 89 88 87 85 82 80 75
82 82 81 80 79 79 77 76 74 72 72 73 74 76 77 78 79 79 80 81 82 82 82 83 85 85 86 85 84 83 83 83 84 84 85 85 85 86 86 86 85 85 84 83 82 81 80 79 78 77 76 75 73 71 69 69 69 68 68 68 68 68 69 72 74 76 78 80 82 83 84 85 86 87 89 90 90 90 90 89 87 85 82 80 76 71
83 82 82 81 80 80 79 78 76 75 75 76 77 78 79 79 79 79 81 82 83 83 84 84 85 87 87 86 86 86 85 85 85 86 86 87 87 87 86 86 86 85 84 83 82 81 80 79 78 77 76 75 73 71 70 69 69 69 69 70 70 70 72 74 76 78 80 82 84 85 85 85 86 88 89 90 91 90 88 87 85 83 80 76 72 67
85 84 83 82 82 82 81 80 79 78 78 78 79 80 81 81 81 81 81 82 83 84 84 85 86 87 87 87 87 87 87 87 87 88 88 88 88 87 87 86 86 85 84 82 81 81 80 79 78 77 76 74 73 71 70 70 69 70 71 72 72 73 75 77 78 79 81 83 85 86 86 87 88 89 90 91 90 88 86 84 83 80 77 73 69 64
87 86 85 84 84 84 83 82 81 81 80 80 80 81 82 82 82 82 83 83 84 85 85 85 86 87 88 88 89 89 89 89 89 89 89 88 88 87 87 86 86 84 83 82 81 81 80 79 78 77 75 74 73 72 71 71 71 72 73 74 74 75 77 79 80 82 83 84 86 87 88 89 89 90 91 90 89 86 83 81 80 77 74 70 65 61
88 87 86 86 86 85 84 84 83 83 83 83 82 82 83 83 83 84 84 84 85 86 86 86 87 88 88 89 90 90 91 91 90 90 90 89 88 88 87 86 85 84 82 82 81 80 79 78 77 76 75 74 73 72 72 72 73 74 76 76 77 78 80 81 83 84 85 86 87 89 90 90 91 91 91 89 86 83 81 78 76 73 70 66 62 58
89 88 87 87 88 87 86 86 86 86 86 86 86 85 85 85 85 85 85 86 87 88 88 89 89 89 90 90 91 91 91 92 92 91 91 90 89 88 87 86 84 83 82 81 80 79 79 78 76 75 74 74 73 73 73 74 75 76 78 79 79 80 82 84 85 87 88 89 90 91 91 91 91 91 90 87 84 81 78 75 72 69 65 61 58 54
90 89 89 89 89 88 88 89 89 89 88 88 88 87 87 87 87 88 88 89 89 90 90 90 90 91 91 91 92 92 92 92 92 92 91 91 90 88 87 85 84 82 81 80 79 78 77 76 76 75 75 74 74 74 75 75 76 78 80 81 82 83 85 87 88 89 90 91 92 93 93 92 91 89 87 85 82 78 75 72 68 64 60 57 55 51
90 90 90 90 90 90 90 91 90 89 89 89 89 89 90 90 90 90 90 90 91 91 91 91 92 92 92 93 93 93 93 93 92 92 92 91 89 88 86 84 83 82 80 79 78 77 76 76 75 75 75 75 75 76 77 78 78 80 82 83 84 86 88 89 90 91 92 93 94 94 94 93 90 87 84 82 80 76 71 67 63 59 56 53 51 47
92 92 92 92 92 92 93 93 92 91 90 91 91 92 92 92 92 92 92 92 93 93 93 93 94 94 94 94 94 94 93 93 93 92 91 90 88 87 85 83 82 81 79 77 76 76 76 76 76 75 75 76 77 78 79 80 81 83 85 86 87 89 90 92 93 93 94 95 95 95 94 92 88 85 82 80 77 72 66 62 58 54 51 49 47 44
94 94 94 93 93 94 95 95 94 92 92 93 94 94 93 94 94 94 94 94 95 95 95 95 96 96 95 95 95 94 94 93 92 91 90 89 87 85 84 82 81 79 77 75 75 75 75 75 76 76 77 78 79 80 81 83 84 86 87 89 90 91 93 94 94 95 96 96 95 94 92 89 86 83 80 77 72 67 61 56 52 48 46 44 43 40
96 96 96 95 94 95 96 96 95 94 94 95 95 95 95 95 95 95 96 96 97 97 97 97 96 96 95 95 95 94 93 92 91 89 88 87 86 84 83 81 79 78 75 74 74 75 75 76 77 78 79 80 81 82 83 85 87 88 89 91 92 93 95 95 96 96 97 96 95 93 90 86 83 80 76 73 68 61 55 50 46 43 42 41 40 38
Wind_Direction
340 345 347 349 351 354 357 359 1 3 5 8 11 12 13 16 19 21 22 20 16 11 6 3 6 10 10 8 7 7 3 357 352 349 346 341 337 335 335 335 335 334 331 327 321 317 316 316 318 322 326 330 331 331 331 331 331 330 330 332 333 336 338 339 339 338 333 328 325 325 326 325 324 321 317 309 301 293 285 277 272 271 261 253 258 263
332 337 340 343 347 350 353 356 359 0 2 5 8 10 10 12 14 16 18 18 16 13 8 1 359 2 2 1 360 359 357 353 349 346 343 338 334 332 332 333 333 333 331 326 322 317 315 315 317 321 325 328 328 328 327 326 325 324 325 328 330 333 335 337 338 336 333 329 328 327 326 326 325 322 319 314 304 293 284 275 269 265 257 253 260 266
324 329 333 337 341 345 349 353 355 356 359 2 6 8 8 10 11 12 14 15 15 14 12 6 359 358 358 356 354 352 351 350 347 344 341 336 331 328 328 330 331 331 330 326 321 317 315 315 317 320 323 324 325 324 323 321 319 320 322 325 328 330 332 334 335 335 333 331 329 328 327 326 325 323 320 316 310 299 288 279 273 268 262 259 261 265
317 320 326 331 336 340 345 349 352 353 355 358 1 5 6 8 8 9 10 12 12 11 12 10 5 0 357 354 351 347 344 344 344 341 339 335 330 326 325 327 329 329 328 323 318 316 314 314 316 318 319 320 320 320 319 318 318 318 319 322 325 328 329 331 333 334 333 332 331 330 328 326 325 323 320 316 312 305 295 285 276 269 265 263 262 262
311 313 319 326 331 335 340 345 348 349 351 353 356 360 3 5 6 6 7 9 10 9 9 10 9 4 360 356 353 348 342 340 338 335 334 333 330 326 323 323 325 325 324 320 316 314 313 313 313 314 315 315 315 315 315 316 316 316 317 320 322 325 327 329 331 332 332 331 330 329 327 325 324 322 320 317 314 310 303 295 285 275 269 266 264 261
306 307 312 319 325 330 334 339 344 346 348 349 351 354 357 0 3 2 2 5 7 7 7 8 9 7 3 359 357 353 345 341 338 334 330 328 327 324 321 320 321 321 320 319 317 315 313 312 312 313 313 312 312 313 313 314 314 316 317 318 320 323 325 327 328 328 327 327 327 327 326 324 322 321 320 319 318 316 312 307 300 292 282 275 270 266
301 302 305 311 317 324 328 333 338 341 344 345 347 349 352 355 358 360 358 359 3 5 4 5 8 8 6 2 360 359 351 344 343 341 337 332 327 322 318 317 317 317 316 316 316 315 314 312 312 312 311 311 311 312 312 313 313 314 315 316 318 321 323 324 324 322 321 322 324 324 324 324 322 321 320 319 319 317 315 312 309 304 299 292 285 278
295 297 299 304 310 316 322 326 331 336 339 342 343 344 347 349 353 355 355 354 357 360 360 1 4 6 7 3 360 360 354 347 345 344 344 341 336 328 320 316 314 313 313 313 314 313 312 312 312 311 311 311 312 312 311 312 312 311 312 314 317 318 319 320 319 318 317 318 320 321 322 322 322 320 318 317 316 314 312 311 309 307 304 301 297 292
290 293 295 298 303 309 315 320 324 330 334 337 338 340 342 343 346 350 351 350 351 353 353 355 358 2 4 1 357 358 355 348 345 344 344 344 342 337 329 320 315 313 312 312 311 311 310 310 310 310 311 312 312 311 310 309 309 309 310 312 313 314 314 315 314 313 313 313 314 316 318 319 319 317 315 313 312 310 309 308 306 305 303 301 298 295
284 288 291 294 297 302 308 313 317 322 327 330 332 335 337 338 340 343 345 345 347 348 347 347 350 354 359 358 353 354 353 348 345 343 342 342 340 339 336 328 321 317 316 314 312 310 309 308 308 308 309 309 309 308 307 306 306 306 307 308 309 309 309 309 309 308 307 307 308 310 312 313 314 314 312 310 308 306 305 304 303 302 301 300 297 295
279 283 287 290 293 296 299 304 309 314 319 323 325 329 332 333 335 337 339 340 341 344 343 341 341 343 349 351 347 350 351 347 343 341 340 340 338 337 336 332 327 323 320 319 317 314 311 308 307 306 306 306 306 305 304 304 304 304 305 306 306 306 305 305 305 304 304 305 306 308 310 312 313 312 311 310 308 306 304 303 301 300 299 298 297 295
276 279 283 286 289 291 293 297 300 304 310 314 318 322 326 328 330 332 334 334 335 338 339 338 337 335 339 341 339 343 346 344 340 338 337 337 337 336 336 333 329 325 322 321 320 318 315 312 308 306 305 305 304 303 302 302 302 303 304 304 305 305 305 305 304 303 304 305 307 309 310 312 312 312 311 310 308 307 305 303 301 299 297 296 294 294
274 277 280 283 286 288 289 291 294 297 302 307 311 317 321 323 325 328 329 330 330 332 334 335 334 333 334 334 332 335 339 339 337 335 334 334 334 335 336 334 329 325 323 321 319 319 318 315 312 308 307 306 304 303 302 301 301 301 302 303 304 304 304 304 303 302 303 304 306 307 309 311 311 311 310 309 308 307 306 305 303 301 299 297 295 294
272 275 277 279 283 285 286 288 290 292 297 302 306 312 316 318 321 324 325 326 326 327 329 331 331 332 332 331 329 330 331 332 333 332 331 331 332 333 334 334 330 326 323 321 319 318 317 316 313 311 309 308 306 304 302 301 301 301 302 302 303 304 304 303 303 303 303 305 306 307 309 310 310 309 309 309 309 308 308 307 305 303 302 300 298 296
271 273 276 277 280 282 285 288 288 290 294 298 302 307 311 314 317 320 321 323 323 323 325 327 327 328 330 329 328 327 325 326 327 328 327 328 329 330 332 332 331 329 325 322 319 317 316 315 313 311 310 309 308 306 304 303 303 304 304 304 304 304 304 303 303 304 305 306 307 308 309 309 309 308 309 310 311 310 310 308 306 305 304 302 301 300
269 272 274 275 277 280 284 286 288 289 291 294 298 302 306 310 313 315 318 319 319 320 321 323 324 324 325 326 326 324 321 321 322 323 324 325 326 328 330 330 330 329 326 322 320 317 316 314 312 311 310 309 309 308 306 306 306 306 306 306 305 304 304 304 304 305 306 307 308 309 309 308 308 309 310 311 312 312 311 309 308 306 305 305 304 304
266 270 272 273 275 278 281 284 287 289 290 292 295 298 301 305 309 311 313 315 316 317 317 319 320 320 321 323 323 321 319 318 318 318 320 321 323 326 328 328 328 328 326 323 321 318 316 314 312 311 310 309 309 308 307 307 308 308 308 307 306 305 305 305 305 305 306 307 308 308 308 307 308 309 311 312 312 312 311 310 308 308 308 308 307 307
265 267 269 271 273 275 278 281 284 288 290 290 291 294 297 301 305 307 309 311 313 314 315 315 316 317 318 319 319 319 317 315 315 315 316 318 321 323 326 326 326 326 326 325 322 319 317 314 312 311 310 309 309 309 308 308 308 308 308 307 306 306 306 305 305 305 306 306 307 307 307 307 308 309 311 312 312 311 311 310 310 310 310 309 309 308
264 266 268 270 272 273 276 278 282 286 289 289 289 291 294 298 301 303 306 308 311 312 312 312 312 314 316 316 316 316 315 314 313 312 314 316 319 321 323 324 324 325 326 326 324 321 318 316 314 312 310 309 309 309 308 308 308 307 307 307 307 306 306 306 305 305 305 306 307 306 306 306 307 309 310 311 311 311 311 311 311 311 310 310 309 309
263 264 266 268 270 272 273 276 280 283 286 287 288 290 292 296 298 300 302 305 308 310 310 309 309 311 314 314 313 314 314 313 312 311 312 315 317 319 321 321 322 323 325 325 324 321 319 317 315 312 311 310 309 308 308 308 307 307 307 307 307 307 306 306 306 306 306 306 306 306 306 306 307 309 310 310 311 311 311 311 311 311 310 310 309 309
262 264 264 266 269 270 271 273 277 280 282 284 287 288 290 293 295 297 300 303 305 307 308 307 307 309 312 313 311 312 312 312 311 310 311 313 315 317 318 319 321 322 324 325 323 321 320 318 315 313 312 311 309 308 308 307 306 306 306 307 307 306 306 306 306 306 306 306 306 306 305 305 307 308 309 309 310 311 311 311 311 310 310 310 310 310
262 264 264 265 266 268 269 271 274 277 279 282 284 286 288 290 291 294 297 300 302 304 305 305 304 306 310 311 310 310 310 311 311 310 310 312 314 315 316 318 320 321 323 323 322 321 319 318 315 314 313 312 310 309 307 306 305 305 306 306 306 306 307 307 307 307 307 307 306 305 305 305 306 307 308 309 310 311 311 311 311 310 310 311 311 311
262 263 264 265 266 267 268 269 271 275 277 280 282 284 285 287 289 292 294 297 300 301 303 304 301 303 308 309 307 308 309 309 309 309 310 311 312 313 314 316 318 320 321 321 321 320 319 317 316 315 315 313 311 309 306 305 305 305 306 306 306 306 307 307 307 307 307 306 305 304 304 305 306 307 308 309 311 311 311 311 311 311 311 311 311 312
261 263 264 266 266 267 268 268 269 273 276 279 280 281 283 285 288 290 292 295 298 299 301 301 299 302 306 306 305 307 307 307 308 308 309 309 310 311 313 314 316 318 319 320 319 319 318 318 317 316 315 314 311 308 306 305 304 305 305 305 305 306 306 306 307 307 307 306 305 304 305 305 306 307 308 310 311 311 311 312 312 312 312 312 313 313
261 263 265 266 267 267 267 267 269 272 275 277 278 280 282 283 286 288 290 293 295 298 300 299 299 301 303 303 304 306 306 306 307 308 308 308 308 310 311 313 314 316 317 318 318 318 319 318 317 316 315 312 310 307 306 305 304 304 304 304 304 305 305 305 306 306 306 305 304 304 305 305 306 307 309 310 311 312 312 312 312 312 313 314 315 315
260 262 264 266 267 267 266 267 269 272 274 276 277 279 280 282 284 286 289 291 294 296 297 297 298 300 300 301 303 304 305 306 306 306 306 306 308 309 310 311 313 314 316 317 318 319 319 318 316 315 313 311 309 307 307 305 304 304 304 304 304 304 304 305 305 305 304 304 304 304 304 305 306 307 309 310 311 313 313 313 313 313 314 315 316 317
260 262 264 266 266 266 266 267 269 270 272 275 277 278 280 282 284 285 287 290 292 294 295 295 298 298 297 299 302 303 304 305 304 304 305 306 307 308 309 311 312 313 315 317 318 318 317 316 315 314 313 311 309 308 306 305 304 303 303 303 303 303 303 303 303 303 303 303 304 304 304 305 306 308 309 311 313 314 314 314 314 314 315 316 317 318
259 261 263 265 266 266 266 267 268 269 271 273 275 277 280 282 283 284 287 289 291 293 293 294 297 296 295 298 301 302 303 303 303 304 305 306 307 308 309 310 311 312 315 317 317 317 316 315 314 314 312 310 309 307 305 304 304 303 303 303 303 302 302 302 302 302 302 303 303 303 304 305 307 309 312 314 315 315 315 315 315 315 316 317 318 318
258 260 262 264 265 265 266 266 267 269 270 272 274 276 279 280 282 284 287 289 290 291 292 294 296 294 294 297 301 301 302 302 303 304 305 306 307 307 308 309 310 312 314 316 316 315 314 315 314 313 311 310 309 307 305 304 304 303 303 303 302 301 301 301 301 301 302 302 303 304 305 307 309 312 314 315 316 316 316 316 316 316 316 317 318 318
258 260 261 262 263 265 266 266 267 268 269 271 273 276 277 279 280 283 286 288 288 289 291 293 294 293 294 297 300 300 301 302 302 303 304 304 304 305 306 307 309 311 313 314 314 314 314 314 313 312 311 309 308 306 306 305 305 304 303 302 301 300 300 300 301 301 302 302 303 304 306 309 312 314 315 316 316 317 317 317 317 317 317 317 317 318
258 259 260 261 262 264 265 266 267 268 270 272 274 275 276 278 280 283 285 285 286 288 289 290 290 291 292 295 297 297 299 300 300 301 301 302 302 304 305 307 309 311 312 313 313 314 314 313 312 311 310 309 307 307 306 305 304 303 303 302 300 300 300 300 301 301 301 302 304 306 308 311 314 315 316 317 317 317 317 317 317 317 317 317 317 317
259 259 260 261 262 263 264 266 268 269 271 274 275 275 276 278 280 282 283 283 285 287 287 288 288 289 290 293 294 295 297 297 298 298 299 299 301 302 304 306 308 310 311 312 313 313 312 312 311 310 310 309 308 307 306 304 303 303 302 301 301 300 300 300 300 301 302 303 305 307 310 313 314 315 316 318 318 318 318 318 317 317 317 316 316 316
259 260 260 261 262 263 264 266 268 271 274 276 275 275 277 279 280 281 281 283 285 286 286 286 286 288 290 291 293 294 295 296 296 297 297 298 300 302 304 305 307 309 310 311 311 312 311 311 310 310 310 309 308 306 305 303 303 302 302 302 301 300 300 300 301 302 303 304 307 309 311 313 315 316 318 318 318 318 317 317 317 316 316 315 315 316
258 260 261 262 263 264 265 267 269 272 275 275 275 277 279 279 279 280 282 283 284 284 284 284 285 287 289 291 292 293 294 294 295 296 297 299 300 302 303 305 306 308 309 310 310 311 311 310 310 310 310 308 307 305 303 303 302 302 302 302 301 300 300 301 302 303 305 306 308 310 313 315 316 317 318 318 318 317 317 317 316 316 315 314 315 315
258 259 261 262 263 265 266 267 269 272 273 274 275 277 278 278 279 281 282 283 284 284 283 284 286 288 289 290 291 292 293 294 295 296 297 299 300 301 303 304 306 307 308 309 310 310 310 310 309 309 308 307 305 304 303 303 303 302 302 302 301 300 300 302 303 305 306 307 309 312 315 316 317 317 318 317 317 317 317 316 316 315 314 314 314 315
258 259 261 262 263 265 266 267 269 270 271 273 275 276 276 277 279 281 282 283 284 283 283 285 288 288 288 289 290 291 292 293 294 295 297 298 299 301 302 304 305 306 307 308 309 310 309 309 308 308 307 305 304 304 304 303 302 302 302 301 300 300 302 303 304 305 306 308 311 314 316 317 316 316 316 316 316 316 316 316 315 315 314 314 314 314
258 259 260 262 263 264 265 266 267 269 271 272 273 274 275 277 279 280 281 283 282 282 284 287 288 287 288 288 290 291 292 293 294 295 296 297 298 300 302 303 304 305 306 307 308 308 308 307 307 307 306 305 304 304 303 303 302 301 301 300 300 301 303 304 304 305 307 310 313 315 315 315 315 315 315 316 316 316 316 316 315 314 313 313 313 313
258 259 260 261 262 263 264 266 267 269 270 271 272 273 275 276 277 278 281 281 280 281 285 287 286 286 288 289 290 291 292 293 294 294 295 296 298 300 301 302 303 304 305 306 307 307 307 307 307 306 305 304 304 303 303 302 302 301 300 300 301 302 303 304 304 307 309 311 313 314 314 314 314 314 315 315 315 315 316 316 315 314 313 313 313 312
257 258 259 260 262 263 264 266 268 269 270 270 271 272 273 274 275 278 279 279 280 282 284 285 285 286 288 289 290 291 292 293 293 294 295 297 298 299 300 301 302 304 305 306 306 306 306 306 306 305 304 303 303 303 302 302 301 300 300 300 301 302 303 305 306 309 310 310 311 312 312 313 313 314 315 315 315 315 316 315 314 313 312 312 312 312
257 258 259 260 262 263 264 266 268 269 268 269 269 270 271 273 275 277 278 279 280 282 283 284 285 286 288 289 290 291 292 292 293 294 295 296 298 299 300 301 302 303 304 305 306 306 306 305 305 304 303 302 302 302 302 301 301 300 300 301 302 303 305 306 307 309 309 309 310 311 311 312 313 314 314 315 315 315 315 314 313 312 312 312 311 311
257 258 259 261 262 263 264 265 266 266 266 267 268 269 271 272 274 276 277 279 280 281 283 284 285 286 288 289 290 291 291 292 293 294 295 296 298 299 300 301 302 303 304 304 305 305 304 304 304 303 302 302 301 301 301 301 300 300 301 301 303 304 306 306 306 307 307 308 309 310 311 312 313 313 314 314 315 315 314 313 312 311 312 311 311 310
256 257 259 260 261 262 263 264 264 265 265 266 267 268 270 272 273 275 276 278 279 281 282 283 284 286 287 289 289 290 290 291 292 293 295 296 297 298 299 300 301 302 303 303 303 303 303 303 302 302 301 300 300 301 300 300 300 300 301 302 303 305 305 305 305 305 306 307 308 310 311 312 312 313 314 314 314 314 313 312 311 311 311 311 310 309
255 256 258 259 260 262 263 264 265 265 265 266 267 268 270 271 273 274 275 277 278 280 281 282 284 285 286 287 288 289 290 291 292 293 294 295 296 297 298 299 300 301 302 302 302 302 302 301 301 300 300 300 300 300 300 300 301 301 301 302 303 303 303 303 304 304 306 307 308 309 310 311 312 313 314 314 313 313 312 311 310 311 311 310 309 308
256 257 258 259 261 262 263 264 265 265 265 266 267 268 269 271 272 273 275 276 277 279 280 281 282 283 284 286 287 288 289 290 291 293 294 295 295 296 297 298 299 300 300 301 301 301 301 300 300 299 299 299 299 300 300 300 301 301 301 301 301 302 302 302 303 304 305 306 308 309 310 311 312 313 313 313 312 312 311 310 310 310 310 309 308 306
257 258 259 260 260 261 262 263 264 264 265 266 266 267 269 270 272 273 274 275 277 278 279 280 281 282 283 284 286 287 289 290 291 292 293 294 294 295 296 297 298 299 299 300 300 300 300 299 299 298 298 299 299 299 300 300 300 299 299 299 300 301 301 302 303 304 305 307 308 309 310 311 312 313 313 312 311 310 310 309 309 308 308 306 305 304
257 258 259 259 260 261 262 262 263 264 265 266 267 267 268 270 271 272 273 274 275 276 278 279 280 281 282 284 285 287 288 289 290 291 292 293 294 295 296 296 297 298 299 299 299 299 298 298 297 297 298 298 298 298 298 298 298 298 298 299 299 300 301 302 303 305 306 307 308 309 310 311 312 312 312 311 310 310 310 309 308 307 305 304 302 301
257 258 258 259 260 261 261 262 263 264 265 266 267 267 268 269 270 271 272 273 274 276 277 278 280 281 282 283 285 286 287 288 290 291 292 292 293 294 295 296 296 297 298 298 297 297 297 296 296 296 296 296 296 296 296 296 297 297 298 298 299 300 301 302 304 305 306 307 308 309 310 311 311 311 311 311 311 310 310 309 307 305 303 301 299 298
256 257 258 259 260 260 261 262 263 263 264 265 266 267 268 269 270 271 272 273 274 275 276 277 279 280 281 283 284 285 287 288 289 290 291 292 293 293 294 295 295 296 296 296 296 295 295 294 294 294 295 295 295 295 295 296 296 297 297 298 299 301 302 303 304 305 306 307 308 309 310 310 310 311 312 312 311 311 310 308 306 303 301 298 296 295
256 257 257 258 259 260 261 262 262 263 264 265 266 267 268 269 270 271 272 273 274 275 276 277 279 280 281 283 284 285 286 287 288 289 290 291 291 292 293 294 294 295 295 294 294 293 292 292 292 293 293 293 294 294 295 296 297 298 298 299 300 301 302 303 304 305 306 307 308 309 309 310 311 312 313 312 311 310 309 307 304 301 298 294 291 290
256 257 257 258 259 260 261 262 263 264 265 266 267 268 269 269 270 271 273 274 275 276 277 278 279 280 281 282 283 284 285 286 287 288 288 289 290 291 292 292 293 293 292 292 291 291 291 291 291 292 292 293 293 294 295 296 297 298 298 299 300 301 302 302 303 305 305 306 307 308 309 310 311 313 313 312 311 310 308 306 303 299 293 288 286 284
256 257 257 258 259 260 261 263 264 264 265 266 267 268 269 270 271 272 273 274 275 276 278 278 279 280 281 282 283 283 284 285 286 286 287 288 289 289 290 290 291 290 290 289 289 289 289 290 290 291 292 292 293 294 294 295 296 297 298 299 300 300 301 302 303 304 305 306 307 308 309 310 312 314 313 312 310 309 307 304 300 293 286 282 280 279
Height
11006 11005 11004 11003 11001 11001 11000 10998 10996 10994 10991 10989 10987 10986 10983 10982 10981 10979 10978 10977 10975 10974 10972 10971 10969 10968 10967 10966 10966 10966 10966 10967 10966 10966 10965 10964 10963 10963 10963 10963 10963 10962 10962 10961 10959 10958 10957 10956 10954 10953 10952 10950 10949 10947 10946 10944 10943 10942 10941 10940 10938 10936 10934 10931 10929 10927 10926 10924 10923 10922 10921 10919 10918 10916 10916 10917 10915 10914 10913 10912 10912 10911 10910 10906 10902 10900
11005 11005 11004 11003 11001 11000 10999 10997 10996 10994 10992 10990 10987 10985 10983 10981 10980 10979 10978 10977 10975 10974 10972 10970 10969 10968 10967 10966 10965 10965 10965 10966 10965 10965 10964 10963 10962 10961 10961 10961 10961 10960 10960 10958 10957 10957 10956 10955 10953 10952 10950 10949 10948 10946 10945 10944 10942 10941 10939 10937 10936 10934 10932 10929 10927 10925 10923 10921 10920 10918 10917 10916 10915 10914 10913 10913 10912 10911 10910 10909 10909 10908 10906 10904 10900 10898
11005 11004 11003 11002 11001 10999 10998 10996 10995 10994 10992 10990 10988 10986 10984 10981 10979 10978 10977 10976 10975 10974 10972 10970 10968 10967 10966 10966 10965 10965 10965 10965 10964 10964 10963 10962 10961 10960 10959 10959 10959 10958 10957 10956 10955 10954 10954 10953 10951 10950 10948 10947 10946 10944 10943 10942 10940 10938 10936 10934 10933 10931 10929 10927 10925 10923 10921 10919 10917 10914 10913 10911 10911 10910 10909 10909 10909 10908 10906 10905 10904 10903 10902 10900 10898 10896
11004 11003 11002 11001 10999 10998 10996 10995 10994 10992 10991 10989 10988 10986 10984 10982 10980 10979 10978 10977 10976 10975 10973 10971 10969 10967 10966 10965 10965 10965 10964 10964 10964 10964 10963 10962 10961 10959 10958 10957 10957 10956 10955 10954 10953 10952 10952 10951 10949 10948 10946 10945 10943 10942 10940 10939 10937 10935 10934 10932 10930 10928 10925 10923 10921 10919 10917 10915 10912 10910 10908 10906 10905 10905 10905 10905 10905 10905 10903 10902 10900 10899 10897 10895 10894 10892
11002 11002 11001 11000 10998 10996 10995 10994 10992 10991 10990 10989 10987 10985 10984 10983 10981 10979 10978 10977 10976 10975 10974 10972 10970 10968 10966 10965 10965 10964 10964 10964 10964 10964 10963 10962 10961 10959 10957 10955 10955 10954 10953 10953 10951 10950 10949 10948 10947 10946 10944 10942 10941 10939 10937 10936 10934 10932 10930 10929 10927 10925 10922 10920 10918 10916 10913 10911 10909 10907 10905 10903 10901 10900 10900 10899 10899 10900 10900 10899 10897 10895 10893 10891 10889 10887
11000 11000 10999 10998 10996 10995 10993 10992 10991 10990 10989 10988 10986 10985 10983 10982 10981 10979 10978 10977 10976 10975 10974 10972 10971 10969 10967 10966 10965 10964 10964 10963 10963 10963 10962 10961 10960 10959 10956 10955 10954 10953 10952 10951 10950 10948 10947 10946 10945 10943 10941 10940 10938 10936 10934 10932 10930 10928 10927 10925 10923 10921 10919 10917 10915 10913 10912 10910 10908 10906 10903 10901 10898 10896 10894 10893 10892 10891 10892 10893 10893 10892 10890 10888 10885 10883
10998 10998 10998 10997 10996 10994 10992 10991 10990 10989 10987 10986 10985 10984 10983 10981 10980 10978 10977 10976 10975 10974 10973 10972 10971 10970 10968 10966 10965 10965 10963 10962 10962 10961 10961 10960 10959 10958 10956 10953 10952 10951 10950 10949 10948 10946 10945 10943 10942 10941 10939 10937 10935 10933 10931 10929 10927 10925 10924 10922 10920 10918 10916 10914 10912 10911 10909 10907 10905 10903 10900 10898 10895 10892 10890 10888 10886 10884 10883 10884 10884 10885 10884 10884 10882 10880
10996 10996 10996 10995 10994 10993 10991 10990 10989 10988 10986 10985 10984 10983 10982 10980 10979 10978 10976 10975 10974 10974 10973 10972 10971 10970 10969 10967 10966 10965 10964 10962 10961 10960 10959 10958 10958 10957 10955 10952 10950 10949 10948 10947 10946 10944 10942 10941 10939 10938 10936 10934 10932 10930 10928 10926 10924 10923 10921 10919 10917 10915 10913 10912 10910 10908 10905 10903 10901 10899 10897 10895 10893 10890 10887 10885 10883 10882 10880 10878 10877 10877 10877 10877 10876 10874
10993 10993 10993 10993 10993 10992 10990 10989 10988 10987 10985 10984 10983 10982 10980 10979 10978 10977 10975 10974 10973 10973 10972 10971 10970 10969 10968 10967 10966 10965 10964 10962 10960 10958 10957 10956 10955 10955 10953 10951 10949 10947 10946 10945 10944 10942 10940 10938 10936 10935 10933 10931 10929 10927 10925 10924 10922 10921 10919 10917 10915 10914 10912 10910 10908 10906 10903 10901 10899 10897 10895 10893 10891 10888 10886 10883 10881 10879 10877 10874 10872 10871 10870 10870 10869 10867
10990 10991 10991 10991 10990 10990 10989 10988 10986 10985 10985 10983 10982 10981 10979 10977 10976 10975 10974 10972 10971 10971 10970 10969 10969 10968 10968 10967 10966 10965 10964 10962 10960 10958 10956 10954 10953 10953 10952 10950 10947 10945 10943 10942 10941 10940 10938 10936 10933 10932 10930 10929 10927 10925 10923 10921 10920 10918 10917 10915 10914 10912 10910 10908 10906 10904 10901 10899 10897 10895 10893 10891 10889 10887 10885 10882 10880 10878 10875 10872 10870 10867 10865 10863 10862 10861
10987 10988 10988 10988 10988 10987 10987 10987 10985 10984 10984 10983 10981 10980 10979 10977 10975 10973 10972 10970 10969 10969 10968 10967 10967 10967 10967 10966 10965 10964 10963 10961 10959 10957 10955 10953 10952 10951 10950 10949 10946 10944 10941 10940 10939 10938 10936 10934 10931 10929 10928 10927 10925 10923 10921 10919 10917 10915 10914 10912 10911 10909 10907 10905 10902 10900 10897 10895 10893 10891 10889 10887 10885 10883 10880 10878 10876 10873 10872 10870 10867 10864 10861 10859 10856 10854
10984 10984 10985 10985 10985 10985 10985 10985 10984 10983 10983 10982 10981 10979 10978 10976 10974 10973 10971 10968 10966 10966 10966 10965 10965 10964 10964 10964 10963 10962 10961 10960 10958 10956 10954 10952 10951 10950 10949 10947 10945 10943 10940 10938 10936 10935 10934 10931 10929 10926 10925 10924 10922 10920 10918 10915 10913 10912 10910 10909 10906 10904 10902 10899 10897 10895 10892 10890 10888 10886 10884 10882 10880 10877 10874 10872 10869 10867 10865 10864 10862 10860 10857 10855 10852 10850
10980 10981 10981 10982 10982 10982 10982 10982 10982 10981 10981 10980 10979 10978 10976 10974 10972 10971 10969 10967 10964 10962 10962 10962 10962 10961 10961 10961 10960 10959 10958 10957 10956 10954 10952 10950 10949 10948 10947 10946 10944 10941 10939 10936 10934 10932 10930 10929 10926 10924 10922 10921 10919 10917 10914 10911 10909 10908 10907 10905 10902 10899 10897 10894 10892 10890 10887 10885 10883 10881 10879 10877 10875 10872 10870 10866 10863 10861 10858 10856 10854 10851 10849 10847 10846 10844
10976 10977 10978 10978 10979 10978 10978 10979 10978 10978 10978 10977 10976 10975 10974 10973 10971 10969 10967 10965 10963 10960 10957 10957 10957 10957 10957 10956 10956 10955 10954 10953 10953 10951 10950 10948 10946 10945 10944 10943 10942 10939 10937 10934 10931 10929 10927 10925 10923 10920 10918 10917 10915 10913 10910 10908 10906 10904 10902 10900 10898 10895 10892 10890 10887 10884 10881 10879 10877 10875 10872 10870 10868 10866 10864 10861 10857 10854 10851 10848 10846 10843 10840 10838 10837 10835
10972 10973 10974 10975 10975 10974 10974 10975 10975 10974 10974 10974 10973 10972 10971 10970 10969 10967 10965 10963 10961 10958 10955 10953 10952 10951 10951 10951 10951 10951 10950 10949 10948 10948 10946 10945 10943 10942 10940 10939 10938 10936 10934 10931 10929 10926 10924 10921 10919 10917 10914 10913 10911 10909 10907 10904 10901 10899 10897 10895 10893 10890 10887 10885 10881 10878 10875 10873 10870 10868 10865 10863 10860 10858 10855 10853 10850 10847 10844 10840 10837 10835 10832 10829 10827 10825
10969 10970 10971 10971 10971 10971 10970 10971 10971 10971 10971 10970 10970 10969 10968 10968 10967 10965 10963 10961 10959 10957 10954 10952 10949 10947 10946 10946 10946 10946 10945 10944 10944 10943 10943 10941 10940 10938 10937 10935 10933 10932 10930 10928 10926 10923 10921 10918 10915 10913 10910 10908 10907 10905 10902 10899 10896 10894 10892 10890 10887 10885 10882 10879 10876 10873 10870 10867 10864 10862 10859 10856 10853 10850 10847 10844 10841 10838 10835 10832 10829 10826 10823 10820 10817 10815
10965 10966 10967 10967 10967 10967 10966 10966 10966 10966 10967 10966 10966 10966 10965 10965 10964 10963 10961 10959 10957 10955 10953 10951 10948 10945 10943 10942 10942 10941 10941 10940 10939 10939 10938 10937 10936 10934 10933 10931 10929 10928 10926 10925 10923 10920 10918 10915 10912 10909 10906 10903 10902 10900 10897 10894 10891 10889 10886 10884 10881 10879 10876 10873 10870 10867 10865 10862 10859 10856 10853 10850 10846 10843 10840 10837 10834 10831 10828 10825 10821 10817 10814 10810 10807 10805
10960 10961 10962 10962 10962 10963 10962 10962 10961 10962 10962 10962 10962 10962 10962 10962 10961 10959 10958 10956 10954 10952 10950 10949 10947 10945 10942 10940 10938 10937 10936 10935 10935 10934 10933 10933 10932 10930 10928 10926 10924 10923 10922 10920 10919 10916 10914 10911 10908 10904 10901 10898 10896 10894 10891 10888 10885 10883 10880 10878 10876 10873 10870 10867 10865 10862 10859 10857 10854 10851 10848 10844 10841 10838 10834 10831 10828 10825 10821 10818 10814 10809 10805 10802 10798 10795
10955 10957 10958 10957 10958 10958 10958 10957 10957 10958 10958 10957 10957 10957 10958 10958 10957 10956 10954 10953 10951 10949 10946 10945 10944 10943 10941 10938 10936 10934 10933 10931 10930 10929 10928 10927 10926 10925 10923 10922 10920 10918 10917 10915 10914 10911 10909 10906 10903 10900 10896 10893 10891 10888 10885 10882 10880 10877 10875 10872 10870 10867 10865 10862 10859 10856 10853 10851 10848 10845 10842 10839 10835 10832 10829 10825 10822 10818 10815 10811 10806 10802 10798 10794 10790 10786
10950 10951 10953 10953 10953 10953 10953 10952 10953 10954 10953 10953 10953 10953 10953 10953 10953 10952 10951 10949 10948 10945 10942 10939 10938 10939 10939 10936 10933 10931 10929 10927 10925 10924 10922 10921 10921 10919 10918 10916 10914 10913 10911 10910 10908 10906 10903 10901 10898 10894 10891 10888 10885 10883 10880 10877 10874 10871 10869 10866 10864 10861 10859 10856 10853 10850 10847 10845 10842 10839 10836 10833 10829 10826 10823 10819 10815 10812 10808 10804 10799 10795 10791 10786 10782 10778
10944 10945 10947 10949 10948 10948 10948 10948 10948 10949 10949 10949 10948 10948 10949 10949 10948 10947 10947 10946 10944 10942 10939 10935 10932 10934 10936 10933 10930 10928 10926 10924 10922 10919 10918 10917 10915 10914 10912 10911 10909 10907 10905 10904 10902 10900 10897 10895 10892 10889 10886 10883 10880 10877 10874 10871 10868 10866 10863 10860 10858 10855 10853 10850 10847 10844 10841 10838 10836 10832 10829 10826 10823 10820 10817 10813 10809 10805 10801 10797 10793 10788 10784 10779 10775 10770
10938 10939 10941 10944 10943 10943 10943 10944 10944 10944 10945 10945 10944 10944 10945 10945 10944 10943 10943 10942 10940 10938 10936 10931 10926 10927 10931 10929 10926 10924 10922 10920 10918 10916 10914 10912 10911 10909 10907 10905 10903 10901 10900 10898 10896 10894 10891 10889 10886 10883 10880 10877 10875 10872 10868 10865 10862 10860 10857 10854 10851 10849 10846 10843 10840 10837 10834 10832 10829 10826 10823 10820 10817 10814 10811 10807 10803 10798 10794 10790 10786 10781 10777 10773 10768 10763
10933 10933 10935 10937 10938 10938 10938 10938 10939 10939 10940 10940 10941 10940 10940 10940 10939 10939 10938 10937 10936 10934 10932 10928 10921 10920 10925 10924 10921 10919 10918 10916 10915 10912 10910 10909 10906 10905 10902 10900 10898 10896 10895 10893 10890 10888 10886 10883 10880 10877 10874 10871 10869 10866 10863 10859 10857 10854 10851 10848 10845 10842 10839 10837 10834 10831 10828 10825 10823 10819 10816 10813 10810 10808 10804 10800 10796 10791 10787 10783 10778 10774 10770 10765 10760 10755
10927 10928 10928 10930 10932 10933 10932 10932 10934 10934 10935 10935 10935 10935 10936 10935 10935 10934 10932 10932 10931 10929 10928 10924 10917 10914 10918 10918 10916 10915 10913 10912 10911 10909 10907 10905 10903 10901 10898 10896 10894 10892 10890 10887 10885 10882 10880 10877 10874 10871 10868 10865 10863 10860 10857 10854 10851 10848 10845 10842 10839 10836 10833 10830 10827 10824 10821 10819 10816 10813 10809 10806 10803 10800 10797 10793 10789 10784 10779 10775 10770 10766 10761 10757 10752 10746
10922 10922 10922 10923 10925 10926 10926 10927 10928 10929 10930 10930 10930 10930 10931 10930 10930 10929 10928 10927 10925 10924 10923 10920 10913 10910 10911 10910 10910 10909 10907 10906 10906 10905 10903 10901 10899 10897 10895 10892 10890 10888 10885 10883 10880 10877 10874 10871 10868 10865 10862 10860 10857 10854 10851 10847 10844 10842 10839 10836 10833 10830 10827 10824 10821 10818 10815 10812 10809 10806 10803 10800 10796 10793 10790 10786 10782 10777 10772 10767 10762 10757 10753 10748 10743 10737
10916 10916 10916 10917 10918 10918 10919 10921 10923 10924 10924 10924 10923 10924 10925 10925 10924 10923 10923 10922 10920 10919 10917 10914 10911 10906 10903 10904 10904 10903 10901 10900 10899 10899 10897 10896 10895 10893 10891 10888 10886 10883 10881 10878 10875 10872 10868 10865 10862 10859 10857 10854 10851 10847 10844 10841 10838 10835 10833 10830 10827 10823 10820 10818 10815 10812 10808 10805 10802 10799 10796 10793 10790 10786 10783 10779 10774 10769 10764 10759 10754 10749 10744 10739 10733 10727
10909 10910 10910 10910 10911 10911 10913 10916 10917 10917 10918 10918 10918 10918 10918 10919 10918 10917 10917 10917 10916 10915 10911 10908 10908 10902 10896 10897 10900 10898 10896 10895 10893 10892 10891 10890 10889 10887 10885 10882 10880 10877 10875 10872 10870 10866 10863 10860 10857 10854 10851 10848 10844 10841 10838 10835 10832 10829 10826 10824 10820 10816 10813 10811 10808 10805 10802 10799 10796 10792 10789 10786 10783 10779 10775 10771 10766 10761 10755 10750 10745 10739 10735 10730 10724 10718
10902 10903 10903 10903 10904 10904 10907 10910 10910 10910 10912 10912 10912 10913 10912 10912 10912 10910 10911 10911 10910 10909 10905 10902 10903 10898 10890 10890 10894 10893 10891 10889 10886 10885 10884 10883 10881 10880 10878 10876 10874 10871 10869 10867 10864 10861 10858 10855 10851 10848 10845 10841 10838 10835 10832 10829 10826 10823 10820 10817 10814 10810 10807 10805 10802 10799 10796 10793 10789 10786 10782 10779 10776 10771 10767 10762 10757 10752 10746 10741 10735 10730 10725 10721 10716 10710
10895 10896 10896 10897 10897 10898 10900 10902 10904 10904 10906 10906 10907 10907 10907 10906 10906 10904 10905 10905 10903 10902 10900 10897 10896 10891 10885 10885 10887 10886 10885 10883 10880 10879 10877 10875 10874 10872 10871 10870 10868 10866 10865 10862 10859 10855 10852 10848 10845 10842 10838 10834 10831 10828 10825 10823 10820 10817 10814 10811 10807 10803 10800 10798 10796 10793 10790 10786 10783 10779 10775 10772 10768 10763 10758 10753 10748 10743 10737 10732 10726 10721 10716 10711 10707 10702
10888 10888 10890 10891 10891 10891 10893 10895 10897 10898 10899 10900 10902 10902 10901 10900 10899 10899 10899 10899 10897 10896 10895 10892 10889 10883 10878 10881 10881 10879 10878 10877 10874 10873 10871 10869 10868 10866 10864 10863 10862 10860 10859 10856 10853 10849 10845 10842 10838 10835 10831 10828 10825 10821 10818 10816 10813 10810 10808 10805 10801 10797 10794 10792 10789 10786 10783 10780 10776 10772 10767 10764 10759 10754 10749 10744 10739 10733 10728 10722 10717 10712 10706 10702 10698 10694
10880 10881 10883 10885 10885 10886 10887 10887 10889 10891 10892 10895 10896 10896 10894 10893 10893 10893 10893 10892 10892 10892 10890 10887 10885 10878 10874 10876 10876 10873 10872 10872 10870 10868 10866 10863 10862 10860 10858 10856 10855 10853 10852 10849 10845 10842 10838 10835 10831 10828 10825 10821 10818 10814 10811 10808 10806 10803 10801 10798 10794 10791 10788 10785 10783 10780 10777 10773 10769 10765 10760 10756 10751 10746 10740 10735 10729 10724 10719 10713 10707 10702 10697 10692 10688 10685
10872 10873 10876 10878 10879 10880 10881 10880 10880 10882 10886 10888 10888 10887 10886 10886 10886 10887 10886 10885 10886 10886 10884 10881 10879 10875 10872 10871 10870 10868 10867 10866 10864 10863 10860 10857 10855 10854 10851 10849 10848 10846 10844 10842 10838 10835 10832 10828 10825 10822 10818 10815 10811 10808 10804 10801 10799 10797 10794 10791 10787 10784 10781 10779 10776 10773 10770 10766 10763 10758 10754 10749 10744 10738 10732 10726 10720 10715 10709 10704 10698 10693 10687 10683 10679 10675
10865 10866 10868 10871 10872 10873 10874 10874 10873 10875 10880 10881 10878 10876 10878 10879 10879 10878 10878 10878 10879 10879 10877 10874 10872 10870 10868 10867 10865 10863 10861 10859 10858 10856 10854 10851 10849 10848 10846 10844 10841 10839 10837 10835 10832 10829 10825 10822 10818 10815 10812 10808 10805 10801 10797 10794 10792 10790 10788 10784 10780 10776 10774 10772 10769 10766 10763 10759 10755 10751 10747 10742 10737 10731 10725 10719 10713 10707 10701 10695 10690 10684 10679 10674 10670 10666
10858 10859 10860 10863 10865 10866 10868 10868 10868 10871 10874 10871 10867 10868 10870 10870 10869 10869 10870 10871 10870 10869 10868 10866 10865 10864 10863 10861 10859 10857 10854 10852 10850 10848 10847 10845 10843 10841 10839 10837 10835 10833 10830 10828 10825 10822 10818 10815 10811 10808 10805 10802 10798 10794 10791 10788 10785 10783 10780 10777 10772 10769 10766 10764 10762 10759 10755 10750 10747 10743 10739 10734 10728 10722 10717 10711 10705 10699 10693 10687 10682 10676 10671 10666 10662 10658
10851 10852 10852 10855 10857 10858 10860 10861 10863 10867 10867 10862 10860 10862 10861 10859 10859 10860 10862 10862 10861 10859 10858 10857 10857 10858 10855 10853 10852 10851 10848 10845 10843 10840 10839 10838 10835 10833 10832 10830 10827 10825 10822 10820 10817 10814 10810 10806 10803 10801 10798 10795 10791 10787 10784 10781 10778 10775 10773 10770 10765 10761 10759 10756 10754 10751 10747 10742 10739 10735 10730 10724 10718 10714 10709 10704 10699 10693 10686 10680 10674 10668 10662 10657 10653 10649
10841 10843 10845 10847 10849 10851 10853 10853 10856 10861 10859 10855 10855 10854 10851 10850 10851 10852 10853 10853 10850 10847 10847 10849 10850 10849 10847 10845 10844 10843 10842 10839 10836 10834 10832 10830 10827 10825 10824 10822 10819 10816 10814 10811 10809 10806 10802 10798 10795 10793 10790 10786 10783 10780 10777 10773 10770 10767 10765 10762 10758 10754 10751 10749 10746 10742 10738 10734 10730 10725 10720 10715 10710 10705 10701 10697 10692 10685 10679 10673 10666 10660 10653 10648 10644 10640
10832 10834 10837 10839 10840 10843 10845 10846 10849 10852 10853 10850 10847 10845 10842 10843 10843 10843 10845 10845 10839 10834 10837 10841 10841 10838 10837 10836 10836 10835 10834 10832 10829 10827 10825 10822 10820 10818 10816 10814 10812 10809 10806 10804 10801 10798 10794 10790 10787 10784 10781 10778 10774 10772 10769 10765 10762 10759 10756 10754 10751 10747 10743 10740 10737 10734 10729 10725 10721 10717 10712 10707 10702 10697 10693 10688 10683 10677 10671 10665 10658 10651 10644 10639 10635 10630
10824 10826 10828 10830 10832 10835 10837 10838 10841 10845 10846 10843 10839 10836 10835 10835 10834 10835 10839 10837 10827 10824 10829 10832 10829 10827 10827 10827 10827 10826 10825 10824 10821 10819 10817 10814 10812 10811 10808 10806 10804 10801 10799 10796 10793 10790 10786 10783 10779 10776 10772 10769 10766 10763 10761 10757 10754 10751 10748 10746 10743 10740 10736 10732 10728 10725 10720 10716 10713 10709 10704 10700 10695 10689 10684 10679 10674 10668 10662 10656 10649 10642 10635 10629 10625 10621
10815 10817 10819 10821 10825 10827 10828 10830 10834 10837 10838 10835 10830 10828 10828 10827 10827 10828 10831 10828 10819 10817 10822 10821 10817 10817 10817 10817 10817 10817 10816 10814 10812 10809 10808 10806 10804 10802 10800 10798 10795 10793 10790 10788 10785 10781 10777 10774 10771 10767 10763 10760 10756 10755 10753 10749 10746 10742 10739 10737 10735 10732 10728 10723 10719 10715 10711 10707 10705 10701 10697 10692 10687 10681 10676 10670 10664 10659 10653 10646 10640 10633 10626 10620 10615 10611
10806 10808 10810 10813 10816 10818 10820 10822 10826 10829 10828 10825 10822 10820 10819 10818 10819 10820 10821 10818 10813 10811 10812 10810 10807 10807 10807 10807 10807 10807 10806 10804 10801 10799 10798 10797 10795 10793 10791 10789 10786 10783 10781 10778 10775 10771 10768 10765 10761 10757 10754 10750 10747 10746 10744 10741 10737 10733 10730 10728 10726 10723 10719 10714 10710 10706 10702 10699 10696 10693 10689 10685 10679 10673 10668 10661 10655 10649 10643 10637 10630 10624 10618 10612 10606 10601
10797 10799 10802 10805 10807 10809 10811 10814 10818 10819 10818 10815 10813 10812 10810 10809 10810 10811 10811 10809 10806 10805 10803 10800 10798 10797 10797 10798 10797 10796 10795 10793 10791 10790 10789 10787 10785 10783 10781 10779 10776 10774 10771 10768 10765 10761 10758 10755 10752 10748 10744 10741 10739 10737 10736 10733 10729 10725 10721 10718 10716 10714 10711 10706 10702 10698 10694 10691 10687 10684 10681 10677 10671 10665 10659 10652 10646 10640 10634 10626 10620 10614 10609 10603 10598 10593
10788 10790 10793 10795 10797 10799 10801 10805 10808 10810 10809 10806 10804 10803 10803 10801 10801 10802 10801 10799 10798 10797 10796 10793 10790 10787 10787 10788 10787 10785 10785 10784 10782 10780 10779 10778 10776 10774 10771 10769 10767 10765 10762 10759 10756 10752 10749 10746 10742 10739 10736 10733 10731 10728 10727 10724 10720 10717 10712 10709 10707 10705 10702 10698 10694 10691 10687 10683 10679 10675 10672 10669 10664 10657 10651 10644 10638 10632 10625 10616 10610 10605 10600 10594 10589 10586
10778 10782 10785 10787 10788 10790 10792 10795 10798 10799 10799 10797 10795 10794 10795 10795 10794 10793 10793 10791 10789 10788 10788 10787 10783 10780 10778 10777 10776 10775 10774 10774 10773 10771 10770 10768 10767 10765 10763 10761 10758 10756 10753 10750 10746 10743 10740 10736 10733 10730 10727 10724 10722 10720 10717 10714 10711 10707 10704 10700 10699 10697 10693 10689 10686 10683 10679 10675 10671 10666 10663 10659 10655 10649 10643 10635 10628 10623 10616 10606 10599 10595 10591 10585 10581 10578
10769 10773 10777 10779 10780 10781 10783 10785 10787 10788 10788 10788 10787 10786 10786 10786 10786 10785 10784 10783 10782 10780 10779 10778 10776 10773 10770 10768 10767 10766 10764 10764 10764 10762 10761 10759 10757 10755 10753 10751 10749 10747 10744 10741 10737 10734 10731 10727 10723 10720 10718 10715 10713 10710 10708 10705 10702 10698 10694 10692 10690 10688 10684 10680 10677 10674 10671 10667 10662 10658 10653 10649 10645 10640 10634 10627 10619 10612 10606 10598 10590 10586 10581 10577 10574 10571
10760 10765 10767 10769 10770 10772 10774 10775 10776 10777 10777 10778 10779 10779 10777 10777 10778 10777 10776 10775 10773 10771 10770 10769 10767 10765 10763 10761 10759 10757 10755 10754 10753 10752 10751 10749 10747 10746 10744 10742 10740 10738 10735 10731 10728 10724 10721 10717 10714 10711 10708 10706 10704 10701 10699 10696 10693 10689 10686 10683 10681 10679 10675 10671 10668 10664 10661 10657 10653 10648 10644 10640 10635 10630 10624 10617 10610 10603 10597 10590 10583 10578 10573 10569 10567 10565
10751 10755 10756 10757 10759 10763 10764 10763 10764 10766 10767 10768 10770 10770 10770 10768 10768 10768 10768 10766 10764 10762 10761 10760 10758 10757 10756 10753 10751 10749 10746 10744 10742 10741 10740 10739 10737 10736 10734 10732 10730 10729 10726 10722 10719 10715 10711 10707 10704 10702 10699 10697 10695 10693 10691 10688 10685 10681 10677 10674 10672 10669 10665 10661 10658 10654 10650 10647 10642 10638 10634 10631 10626 10620 10614 10606 10599 10593 10587 10581 10575 10570 10566 10562 10560 10559
10740 10743 10745 10745 10748 10751 10752 10751 10754 10757 10758 10758 10759 10760 10760 10759 10758 10758 10758 10757 10755 10754 10753 10751 10750 10748 10747 10745 10743 10741 10738 10735 10733 10731 10729 10729 10727 10726 10724 10722 10721 10719 10717 10713 10710 10706 10702 10698 10695 10693 10691 10688 10686 10684 10682 10679 10677 10673 10669 10665 10663 10659 10655 10651 10647 10643 10639 10636 10632 10628 10624 10621 10617 10611 10604 10595 10588 10583 10578 10572 10567 10562 10558 10555 10553 10552
10730 10732 10733 10734 10737 10739 10738 10738 10743 10747 10747 10748 10748 10748 10748 10749 10748 10748 10747 10747 10746 10745 10744 10742 10741 10739 10738 10736 10734 10732 10730 10727 10725 10722 10720 10719 10717 10716 10714 10713 10711 10709 10707 10704 10701 10697 10693 10690 10687 10684 10682 10680 10677 10675 10672 10670 10668 10664 10659 10655 10653 10649 10645 10641 10637 10633 10629 10625 10622 10618 10614 10610 10606 10601 10594 10585 10577 10573 10569 10563 10559 10555 10551 10548 10546 10546
10718 10719 10721 10722 10724 10725 10724 10726 10732 10736 10736 10736 10736 10736 10737 10738 10738 10737 10736 10736 10735 10735 10734 10733 10732 10730 10729 10727 10725 10724 10721 10718 10717 10714 10711 10709 10707 10706 10705 10703 10702 10700 10697 10695 10692 10688 10684 10681 10678 10676 10674 10671 10668 10665 10662 10660 10657 10653 10649 10645 10642 10638 10634 10630 10627 10623 10619 10615 10612 10608 10604 10599 10594 10589 10583 10574 10568 10564 10561 10555 10551 10547 10544 10541 10540 10540
10705 10706 10708 10711 10713 10712 10712 10715 10721 10725 10725 10724 10725 10726 10727 10727 10726 10726 10725 10724 10724 10724 10723 10722 10721 10720 10720 10718 10716 10714 10712 10710 10708 10706 10702 10700 10698 10697 10695 10694 10692 10690 10688 10686 10683 10679 10676 10673 10670 10667 10665 10662 10659 10656 10653 10650 10647 10643 10639 10635 10632 10628 10624 10620 10617 10614 10610 10606 10602 10598 10593 10589 10584 10579 10572 10565 10559 10556 10552 10548 10544 10540 10537 10535 10535 10534
10691 10694 10696 10699 10702 10702 10701 10704 10710 10714 10714 10713 10713 10714 10715 10716 10716 10715 10714 10713 10713 10713 10713 10712 10711 10710 10709 10707 10705 10704 10702 10700 10699 10697 10694 10691 10689 10688 10686 10685 10683 10681 10679 10677 10674 10670 10667 10664 10661 10658 10656 10653 10650 10647 10644 10640 10637 10633 10629 10626 10622 10618 10614 10611 10607 10604 10600 10596 10592 10588 10584 10579 10575 10569 10562 10556 10551 10548 10544 10540 10537 10533 10531 10530 10529 10529